Regional Weather Roundup
Issued by NWS

Home | Current Version | Previous Version | Graphics & Text | Print | Product List | Glossary On
Versions: 1 2 3 4 5 6 7 8 9 10 11 12 13 14 15 16 17 18 19 20 21 22 23 24 25 26 27 28 29 30 31 32 33 34 35 36 37 38 39 40 41 42 43 44 45 46 47 48 49 50
000
ASUS43 KTOP 221708
RWRKS

WEATHER ROUNDUP FOR KANSAS
NATIONAL WEATHER SERVICE GOODLAND KS
1200 PM CDT FRI AUG 22 2014

NOTE:  "FAIR" INDICATES FEW OR NO CLOUDS BELOW 12,000 FEET WITH NO
SIGNIFICANT WEATHER AND/OR OBSTRUCTIONS TO VISIBILITY.

KSZ001>006-013>018-027>032-041>047-221800-
NORTHWEST KANSAS

CITY           SKY/WX    TMP DP  RH WIND       PRES   REMARKS
GOODLAND       MOSUNNY   83  59  44 NE17G24   30.06S
HAYS           SUNNY     84  70  61 N9        29.94F
HILL CITY      MOSUNNY   88  68  51 NE14      29.97F
RUSSELL        SUNNY     90  65  43 CALM      29.92S
$$

KSZ061>065-074>080-084>089-221800-
SOUTHWEST KANSAS

CITY           SKY/WX    TMP DP  RH WIND       PRES   REMARKS
DODGE CITY     PTSUNNY   88  61  40 W8        29.97R
ELKHART          N/A     91  60  35 SW5         N/A
GARDEN CITY    MOSUNNY   88  62  41 VRB3      29.97F
GREAT BEND     MOSUNNY   93  66  40 SW8       29.92F HX  96
LIBERAL        MOSUNNY   93  61  33 S16       29.98F
PRATT          MOSUNNY   91  63  38 SW13      29.94F
$$

KSZ066>073-081>083-090>101-221800-
SOUTHEAST KANSAS

CITY           SKY/WX    TMP DP  RH WIND       PRES   REMARKS
CHANUTE        SUNNY     93  69  45 SW10      29.96S HX  98
COFFEYVILLE    SUNNY     93  71  48 S15       29.96S HX 100
HUTCHINSON     PTSUNNY   94  66  39 S12       29.91F HX  97
MEDICINE LODGE   N/A     94  67  41 W10       29.92S HX  97
NEWTON         MOSUNNY   88  66  48 NW13G20   29.98R THUNDER
PARSONS        SUNNY     91  70  49 S13G20    29.97F HX  96
WICHITA INTL   MOSUNNY   95  66  38 S13G23    29.92F HX  98
WICHITA JABRA  MOSUNNY   92  67  43 SW17      29.93F HX  95
WICHITA MCCONL SUNNY     92  68  45 S14       29.93F HX  95
WINFIELD       SUNNY     94  68  42 SW14      29.95F HX  98
$$

KSZ007>012-019>026-033>040-048>060-102>105-221800-
NORTHEAST KANSAS

CITY           SKY/WX    TMP DP  RH WIND       PRES   REMARKS
CONCORDIA      TSTM      79  78  97 NW6       29.93R
EMPORIA        MOSUNNY   87  69  54 S12G23    29.94S
LAWRENCE       MOSUNNY   92  72  51 S6        29.93F HX  99
MANHATTAN      PTSUNNY   92  70  48 VRB7      29.91F HX  97
MARYSVILLE     CLOUDY    82  73  74 S9        29.93R
OLATHE IND     MOSUNNY   89  70  53 S5        29.96F
OLATHE EXE     MOSUNNY   88  71  57 S5        29.95F
SALINA         MOSUNNY   94  69  44 W9        29.91S HX  99
TOPEKA BILLARD PTSUNNY   91  72  53 VRB7      29.92F HX  98
TOPEKA FORBES  MOSUNNY   92  69  47 SE10      29.93F HX  97
$$


USA.gov is the U.S. government's official web portal to all federal, state and local government web resources and services.